Tekamah, NE

12:54 PM CDT on August 19, 2017 (GMT -0500)
Tekamah

Weather History for KTQE - January, 2011

Change the Weather History Date:

Thursday, January 13, 2011

  Actual Average Record
Temperature  
Mean Temperature 5 °F -  
Max Temperature 19 °F 30 °F 60 °F (1987)
Min Temperature -9 °F 7 °F -18 °F (1964)
Degree Days  
Heating Degree Days 60    
Moisture  
Dew Point 3 °F    
Average Humidity 77    
Maximum Humidity 87    
Minimum Humidity 71    
Precipitation  
Precipitation 0.00 in - - ()
Sea Level Pressure  
Sea Level Pressure 30.35 in    
Wind  
Wind Speed 10 mph (South)    
Max Wind Speed 21 mph    
Max Gust Speed 30 mph    
Visibility 10 miles    
Events      
Averages and records for this station are not official NWS values.
T = Trace of Precipitation, MM = Missing Value Source: NWS Daily Summary

Daily Weather History Graph

Daily Weather History Graph

Search for Another Location

Airport or City:

Trip Planner

Search our weather history database for the weather conditions in past years. The results will help you decide how hot, cold, wet, or windy it might be!

Date:

Astronomy

Jan. 13, 2011 Rise Set
Actual Time 7:50 AM CST 5:16 PM CST
Civil Twilight 7:19 AM CST 5:47 PM CST
Nautical Twilight 6:45 AM CST 6:21 PM CST
Astronomical Twilight 6:11 AM CST 6:55 PM CST
Moon 12:00 PM CST (1/13) 1:48 AM CST (1/13)
Length of Visible Light 10h 27m
Length of Day
9h 26m
Waxing Gibbous, 62% of the Moon is Illuminated
Jan 13
Waxing Gibbous
Jan 19
Full
Jan 26
Last Quarter
Feb 2
New
Feb 11
First Quarter

Hourly Weather History & Observations

Time (CST) Temp. Windchill Dew Point Humidity Pressure Visibility Wind Dir Wind Speed Gust Speed Precip Events Conditions
12:54 AM -9.9 °F -24.9 °F -14.1 °F 82% 30.60 in 9.0 mi South 6.9 mph - N/A   Clear
1:54 AM -9.0 °F -23.8 °F -14.1 °F 79% 30.57 in 8.0 mi South 6.9 mph - N/A   Clear
2:54 AM -5.1 °F -21.5 °F -9.9 °F 80% 30.54 in 10.0 mi SE 9.2 mph - N/A   Clear
3:54 AM -0.0 °F -18.7 °F -6.0 °F 76% 30.51 in 8.0 mi SE 13.8 mph - N/A   Clear
4:28 AM 1.4 °F -16.1 °F -5.8 °F 72% 30.42 in 4.0 mi SE 12.7 mph - N/A   Haze
4:54 AM 1.9 °F -15.5 °F -4.0 °F 76% 30.48 in 9.0 mi SE 12.7 mph - N/A   Scattered Clouds
5:54 AM 1.9 °F -13.8 °F -2.9 °F 80% 30.45 in 10.0 mi SE 10.4 mph - N/A   Clear
6:54 AM 5.0 °F -12.3 °F -0.9 °F 76% 30.40 in 10.0 mi SE 13.8 mph - N/A   Partly Cloudy
7:54 AM 9.0 °F -9.5 °F 3.9 °F 80% 30.39 in 10.0 mi South 18.4 mph - N/A   Overcast
8:54 AM 10.9 °F -7.9 °F 3.9 °F 73% 30.36 in 9.0 mi South 20.7 mph 29.9 mph N/A   Mostly Cloudy
9:54 AM 12.9 °F -2.8 °F 5.0 °F 71% 30.37 in 10.0 mi South 15.0 mph - N/A   Mostly Cloudy
10:54 AM 14.0 °F -2.5 °F 6.1 °F 71% 30.32 in 10.0 mi South 17.3 mph - N/A   Clear
11:54 AM 16.0 °F 2.3 °F 8.1 °F 71% 30.29 in 10.0 mi South 12.7 mph - N/A   Clear
12:54 PM 18.0 °F 3.1 °F 10.0 °F 71% 30.24 in 10.0 mi South 16.1 mph - N/A   Partly Cloudy
1:54 PM 19.0 °F 7.5 °F 10.9 °F 71% 30.23 in 10.0 mi South 10.4 mph - N/A   Clear
2:54 PM 19.9 °F 9.3 °F 12.0 °F 71% 30.24 in 10.0 mi South 9.2 mph - N/A   Clear
3:54 PM 19.9 °F 8.6 °F 12.0 °F 71% 30.23 in 10.0 mi SSW 10.4 mph - N/A   Clear
4:54 PM 17.1 °F 7.6 °F 10.0 °F 74% 30.24 in 10.0 mi South 6.9 mph - N/A   Clear
5:54 PM 12.9 °F 5.2 °F 7.0 °F 77% 30.25 in 10.0 mi South 4.6 mph - N/A   Clear
6:54 PM 8.1 °F -3.2 °F 3.9 °F 83% 30.25 in 10.0 mi SSE 6.9 mph - N/A   Clear
7:54 PM 9.0 °F -0.9 °F 5.0 °F 84% 30.26 in 10.0 mi South 5.8 mph - N/A   Clear
8:54 PM 7.0 °F -1.7 °F 3.9 °F 87% 30.25 in 10.0 mi SSW 4.6 mph - N/A   Clear
9:54 PM 10.9 °F - 6.1 °F 81% 30.26 in 10.0 mi Calm Calm - N/A   Clear
10:54 PM 12.9 °F 5.2 °F 8.1 °F 81% 30.27 in 10.0 mi NW 4.6 mph - N/A   Clear
11:54 PM 10.9 °F 1.4 °F 6.1 °F 81% 30.27 in 10.0 mi NW 5.8 mph - N/A   Clear